This is the latest recevied weather packets stored in our database for station/object KI4NG. If no packets are shown the sender has not sent any weather packets the latest 10 day(s).
| Time | Temp. | Humidity | Pressure | Rain* | Wind** | Luminosity | Snow |
|---|---|---|---|---|---|---|---|
| 1777886496 | 8.89° C | 77% | 1016.5 hPa | 0 mm | - | 0 W/m² | - |
| 1777886194 | 8.89° C | 77% | 1016.6 hPa | 0 mm | - | 0 W/m² | - |
| 1777885892 | 8.33° C | 79% | 1016.6 hPa | 0 mm | - | 0 W/m² | - |
| 1777885591 | 8.89° C | 79% | 1016.5 hPa | 0 mm | - | 0 W/m² | - |
| 1777885288 | 8.89° C | 79% | 1016.6 hPa | 0 mm | - | 0 W/m² | - |
| 1777884986 | 8.89° C | 76% | 1016.6 hPa | 0 mm | - | 0 W/m² | - |
| 1777884681 | 8.33° C | 79% | 1016.5 hPa | 0 mm | - | 0 W/m² | - |
| 1777884378 | 8.33° C | 80% | 1016.7 hPa | 0 mm | - | 0 W/m² | - |
| 1777884075 | 8.33° C | 78% | 1016.6 hPa | 0 mm | - | 0 W/m² | - |
| 1777883772 | 8.33° C | 80% | 1016.6 hPa | 0 mm | - | 0 W/m² | - |
| 1777883469 | 7.78° C | 80% | 1016.9 hPa | 0 mm | - | 0 W/m² | - |
| 1777883165 | 7.78° C | 81% | 1016.9 hPa | 0 mm | - | 0 W/m² | - |
| 1777882861 | 7.78° C | 81% | 1017 hPa | 0 mm | - | 0 W/m² | - |
| 1777882558 | 7.78° C | 82% | 1016.9 hPa | 0 mm | - | 0 W/m² | - |
| 1777882254 | 7.78° C | 80% | 1016.9 hPa | 0 mm | - | 0 W/m² | - |
| 1777881951 | 7.78° C | 80% | 1017 hPa | 0 mm | - | 0 W/m² | - |
| 1777881648 | 7.78° C | 81% | 1017 hPa | 0 mm | - | 0 W/m² | - |
| 1777881344 | 7.78° C | 80% | 1016.8 hPa | 0 mm | - | 0 W/m² | - |
| 1777881042 | 8.33° C | 80% | 1017.1 hPa | 0 mm | - | 0 W/m² | - |
| 1777880740 | 7.78° C | 80% | 1016.8 hPa | 0 mm | - | 0 W/m² | - |
| 1777880438 | 7.78° C | 81% | 1016.9 hPa | 0 mm | - | 0 W/m² | - |
| 1777880136 | 7.78° C | 79% | 1016.7 hPa | 0 mm | - | 0 W/m² | - |
| 1777879834 | 7.78° C | 80% | 1016.7 hPa | 0 mm | - | 0 W/m² | - |
| 1777879532 | 7.78° C | 80% | 1016.9 hPa | 0 mm | - | 0 W/m² | - |
| 1777879227 | 7.78° C | 79% | 1016.9 hPa | 0 mm | - | 0 W/m² | - |
* Rain latest hour (hover to see other rain measurements)
** Current wind speed in m/s (hover to see current wind gust speed)